Flag for Switzerland Weather past 2 weeks in Sion, Valais, Switzerland

Now
41 °F

Low clouds.


Feels Like: 38 °F
Forecast: 42 / 50 °F
Wind: 5 mph from East

Location: Sion

Current Time: Mar 1, 2015 at 1:53:51 PM

Latest Report: Mar 1, 2015 at 1:00 PM


Visibility: 9 mi

Pressure: 30.08 "Hg

Humidity: 84%

Dew point: 36 °F

Location of SionLocation

Historic Weather in Sion — Graph

°F

Sion temperature yesterday

Maximum temperature yesterday: 48 °F (at 3:00 PM)
Minimum temperature yesterday: 34 °F (at 10:00 PM)
Average temperature yesterday: 39 °F

Past Weeks' High & Low Weather Summary

 TemperatureHumidityPressure
High53 °F (Feb 16, 4:00 PM)95% (Feb 15, 7:00 AM)30.70 "Hg (Feb 15, 7:00 AM)
Low27 °F (Feb 20, 5:00 AM)17% (Feb 20, 3:00 PM)29.53 "Hg (Feb 21, 1:00 PM)
Average38 °F69%30.08 "Hg
* Reported Feb 14 12:00 Noon — Mar 1 12:00 Noon, Sion, Weather by CustomWeather, © 2015

Note: Actual official high and low records may vary slightly from our data, if they occured in-between our weather recording intervals... More about our weather records

Advertising

Sion weather history for previous 24 hours

 ConditionsComfort  
Time TempWeatherWind HumidityBarometerVisibility
12:00 PM
Sun, Mar 1
38 °FChilly.7 mph87%30.11 "HgN/A
11:00 AM37 °FChilly.3 mph92%30.14 "HgN/A
10:00 AM37 °FLight rain. Low clouds.7 mph92%30.13 "Hg9 mi
9:00 AM35 °FChilly.6 mph92%30.15 "HgN/A
8:00 AM34 °FChilly.3 mph94%30.15 "HgN/A
7:00 AM36 °FOvercast.2 mph71%30.13 "Hg12 mi
6:00 AM37 °FChilly.5 mph69%30.11 "HgN/A
5:00 AM36 °FChilly.6 mph69%30.11 "HgN/A
4:00 AM35 °FChilly.1 mph74%30.12 "HgN/A
3:00 AM34 °FChilly.2 mph76%30.14 "HgN/A
2:00 AM35 °FChilly.6 mph72%30.14 "HgN/A
1:00 AM33 °FClear.3 mph81%30.16 "Hg12 mi
12:00 AM34 °FChilly.3 mph76%30.16 "HgN/A
11:00 PM
Sat, Feb 28
35 °FChilly.5 mph76%30.17 "HgN/A
10:00 PM34 °FChilly.No wind78%30.19 "HgN/A
9:00 PM35 °FChilly.1 mph76%30.18 "HgN/A
8:00 PM36 °FChilly.1 mph75%30.16 "HgN/A
7:00 PM39 °FPassing clouds.3 mph70%30.13 "Hg12 mi
6:00 PM42 °FQuite cool.8 mph62%30.09 "HgN/A
5:00 PM45 °FCool.9 mph54%30.07 "HgN/A
4:00 PM46 °FOvercast.10 mph51%30.09 "Hg16 mi
3:00 PM48 °FCool.8 mph44%30.07 "HgN/A
2:00 PM46 °FCool.1 mph46%30.09 "HgN/A
1:00 PM44 °FOvercast.2 mph58%30.13 "Hg16 mi
Weather by CustomWeather, © 2015

See weather overviewHow to use our weather pages